Regional Weather Roundup
Issued by NWS

Home | Current Version | Previous Version | Text Only | Print | Product List | Glossary On
Versions: 1 2 3 4 5 6 7 8 9 10 11 12 13 14 15 16 17 18 19 20 21 22 23 24 25 26 27
000
ASUS44 KJAN 180010
RWRMS

MISSISSIPPI HOURLY WEATHER ROUNDUP
NATIONAL WEATHER SERVICE JACKSON MS
600 PM CST SUN DEC 17 2017

NOTE: "FAIR: INDICATES FEW OR NO CLOUDS BELOW 12,000 FEET WITH NO
SIGNIFICANT WEATHER AND/OR OBSTRUCTIONS TO VISIBILITY.

MSZ001>002-007>008-010>013-018>021-025>028-034>036-180100-
NORTHWEST MISSISSIPPI

CITY           SKY/WX    TMP DP  RH WIND       PRES   REMARKS
BATESVILLE     CLOUDY    48  46  91 CALM      30.13S FOG
CLARKSDALE     CLOUDY    46  46 100 CALM      30.14R FOG
CLEVELAND      CLOUDY    47  47 100 CALM      30.12S FOG
GREENWOOD      CLOUDY    51  49  92 CALM      30.12R
6HR MIN TEMP:  51; 6HR MAX TEMP:  54;

GREENVILLE     CLOUDY    47  45  93 N3        30.11S
6HR MIN TEMP:  47; 6HR MAX TEMP:  49;

OLIVE BRANCH   CLOUDY    45  45 100 CALM      30.11R FOG
TUNICA           N/A    N/A N/A N/A CALM      30.13F HAZE
WINONA         CLOUDY    51  51 100 CALM      30.12R FOG
$$

MSZ003>006-009-014>017-022>024-029>033-037>039-180100-
NORTHEAST MISSISSIPPI

CITY           SKY/WX    TMP DP  RH WIND       PRES   REMARKS
ABERDEEN       CLOUDY    52  52 100 CALM      30.14S FOG
COLUMBUS AFB   CLOUDY    50  50 100 S5        30.13R
6HR MIN TEMP:  49; 6HR MAX TEMP:  53;

CORINTH        CLOUDY    48  46  93 CALM      30.13R FOG
GOLDN TRIANGLE CLOUDY    50  49  96 CALM      30.14R FOG
STARKVILLE     CLOUDY    50  48  93 CALM      30.14R FOG
TUPELO         CLOUDY    47  45  93 CALM      30.13R FOG
6HR MIN TEMP:  46; 6HR MAX TEMP:  48;

$$

MSZ040-058-180100-
CENTRAL MISSISSIPPI

CITY           SKY/WX    TMP DP  RH WIND       PRES   REMARKS
JACKSON INTL   CLOUDY    60  57  89 SE3       30.09S FOG
6HR MIN TEMP:  59; 6HR MAX TEMP:  64;

JACKSON HAWKNS CLOUDY    58  58 100 CALM      30.10S FOG
6HR MIN TEMP:  57; 6HR MAX TEMP:  62;

MADISON        CLOUDY    55  55 100 CALM      30.10R
MERIDIAN KEY   FOG       52  51  97 NE3       30.12R VSB 1/2
6HR MIN TEMP:  51; 6HR MAX TEMP:  54;

MERIDIAN NAS   FOG       50  49  96 CALM      30.14R VSB 1/4
6HR MIN TEMP:  48; 6HR MAX TEMP:  51;

RAYMOND        CLOUDY    59  59 100 CALM      30.10R FOG
VICKSBURG VKS  CLOUDY    54  54 100 N6        30.12R FOG
$$

MSZ059>079-180100-
SOUTH MISSISSIPPI

CITY           SKY/WX    TMP DP  RH WIND       PRES   REMARKS
HATTIESBURG    CLOUDY    61  61 100 N3        30.11R
6HR MIN TEMP:  59; 6HR MAX TEMP:  64; 6HR PCP:  0.23;

LAUREL         CLOUDY    55  55 100 CALM      30.12R VSB 1/2
MCCOMB         FOG       62  61  96 CALM      30.10R VSB 1/4
6HR MIN TEMP:  60; 6HR MAX TEMP:  63;

NATCHEZ        CLOUDY    60  58  92 NW3       30.11R
6HR MIN TEMP:  60; 6HR MAX TEMP:  63;

PINE BELT      FOG       58  57  97 CALM      30.12R VSB 1/2
6HR MIN TEMP:  57; 6HR MAX TEMP:  60; 6HR PCP:  0.01;

$$

MSZ080>082-180100-
COASTAL MISSISSIPPI

CITY           SKY/WX    TMP DP  RH WIND       PRES   REMARKS
BAY ST LOUIS   FOG       66  66 100 CALM      30.10S VSB 1
BILOXI         CLOUDY    64  64  97 SE7       30.10F
6HR MIN TEMP:  63; 6HR MAX TEMP:  68; 6HR PCP:  0.57;

PASCAGOULA     LGT RAIN  67  65  93 CALM      30.12S VSB 1/2
6HR MIN TEMP:  67; 6HR MAX TEMP:  70; 6HR PCP:  0.85;

GULFPORT       FOG       65  65 100 SE3       30.10S VSB 3/4
6HR MIN TEMP:  65; 6HR MAX TEMP:  69; 6HR PCP:  0.45;

$$

LAZ007>009-015>016-023>026-180100-
NORTHEAST LOUISIANA

CITY           SKY/WX    TMP DP  RH WIND       PRES   REMARKS
BASTROP        FOG       48  48  98 CALM      30.13R VSB 1/2
TALLULAH/VBURG CLOUDY    52  52 100 N3        30.12R FOG
6HR MIN TEMP:  52; 6HR MAX TEMP:  58;

VIDALIA        CLOUDY   N/A N/A N/A MISG      30.10R
$$




USA.gov is the U.S. government's official web portal to all federal, state and local government web resources and services.